Search for airport 
image banner adimage banner adimage banner ad
image banner ad

6PN5 - Sam's Field

Located in Bradford, United States

ICAO - 6PN5, IATA -

Data provided by Airmate  

General information

Coordinates: N41°54'27" W78°37'44"
Elevation is 1540 feet MSL.
Magnetic variation is -10° East
View others Airports in Pennsylvania

Operational data

Special qualification required
Current time UTC:
Current local time:
Weather at : KBFD - Bradford Rgnl ( 12 km )
METAR: KBFD 292053Z AUTO 27006G16KT 10SM CLR 24/18 A2983 RMK AO2 SLP089 T02390178 55011
TAF: KBFD 292002Z 2920/3018 27009G16KT P6SM SCT015 BKN060 FM292300 27005KT P6SM SCT008 BKN035 FM300700 31007KT 2SM BR OVC008 FM301300 33014G20KT P6SM BKN035
View NOTAMs / SUP AIP / TFR affecting this airport [VIEW]
Communications frequencies: [VIEW]

Runways:

RWY identifierQFULength (ft)Width (ft)SurfaceLDA (ft)
091300100GRASS
271300100GRASS

Airport contact information

Address: Bradford United States

Satellite view of 6PN5